Tracking 28052 objects as of 25-Sep-2023
HD Live streaming from Space Station
objects crossing your sky now

STARLINK-2606

Track STARLINK-2606 now!
10-day predictions
STARLINK-2606 is classified as:


NORAD ID: 48386
Int'l Code: 2021-038AK
Perigee: 553.2 km
Apogee: 555.2 km
Inclination: 53.1 °
Period: 95.6 minutes
Semi major axis: 6925 km
RCS: Unknown
Launch date: May 4, 2021
Source: United States (US)
Launch site: AIR FORCE EASTERN TEST RANGE (AFETR)
Your satellite tracking list
Your tracking list is empty




NASA's NSSDC Master Catalog

Two Line Element Set (TLE):
1 48386U 21038AK  23267.55838176  .00025468  00000-0  17204-2 0  9997
2 48386  53.0558  54.0067 0001456  93.9722 266.1434 15.06445142132012
Source of the keplerian elements: AFSPC